BEIDOU-3 G3

Last updated on Sun Jul 06 2025 00:02:46 GMT+0000 (Coordinated Universal Time)

1 45807U 20040A 25186.63057727 -.00000339 00000+0 00000+0 0 9993 2 45807 1.6041 64.4908 0004901 347.4075 209.5026 1.00274741 18596
UTC large
Height (km)
Speed (km/s)
/
Latitude / Longitude
Inclination (degrees)
Orbital Period (minutes)
Azimuth
Elevation
Range (km)
Doppler Factor

Next 0 passes for location: London (51.5072 / 0.1276)

Sorry there are no passes over London.